Mobile - Dauphin Island Weather Center

Moon Phase Calendar



Online Cameras

 


      

Current Conditions in Point Clear
1/26/2021 8:50:29 PM

63°F
Feels Like 61
Clouds
Humidity
88%
Pressure
29.91"
Wind
7.8 mph (SSW)
Dew Point
59°F
UV Index
0/10 (Low)
Visibility
6 mi

Hourly Forecast

Date & Time Tue, Jan 26
8:00 PM
Tue, Jan 26
9:00 PM
Tue, Jan 26
10:00 PM
Tue, Jan 26
11:00 PM
Wed, Jan 27
12:00 AM
Wed, Jan 27
1:00 AM
Wed, Jan 27
2:00 AM
Wed, Jan 27
3:00 AM
Wed, Jan 27
4:00 AM
Wed, Jan 27
5:00 AM
Wed, Jan 27
6:00 AM
Wed, Jan 27
7:00 AM
Wed, Jan 27
8:00 AM
Wed, Jan 27
9:00 AM
Wed, Jan 27
10:00 AM
Wed, Jan 27
11:00 AM
Wed, Jan 27
12:00 PM
Wed, Jan 27
1:00 PM
Wed, Jan 27
2:00 PM
Wed, Jan 27
3:00 PM
Wed, Jan 27
4:00 PM
Wed, Jan 27
5:00 PM
Wed, Jan 27
6:00 PM
Wed, Jan 27
7:00 PM
Wed, Jan 27
8:00 PM
Wed, Jan 27
9:00 PM
Wed, Jan 27
10:00 PM
Wed, Jan 27
11:00 PM
Thu, Jan 28
12:00 AM
Thu, Jan 28
1:00 AM
Thu, Jan 28
2:00 AM
Thu, Jan 28
3:00 AM
Thu, Jan 28
4:00 AM
Thu, Jan 28
5:00 AM
Thu, Jan 28
6:00 AM
Thu, Jan 28
7:00 AM
Thu, Jan 28
8:00 AM
Thu, Jan 28
9:00 AM
Thu, Jan 28
10:00 AM
Thu, Jan 28
11:00 AM
Thu, Jan 28
12:00 PM
Thu, Jan 28
1:00 PM
Thu, Jan 28
2:00 PM
Thu, Jan 28
3:00 PM
Thu, Jan 28
4:00 PM
Thu, Jan 28
5:00 PM
Thu, Jan 28
6:00 PM
Thu, Jan 28
7:00 PM
Condition
Rain

Clouds

Clouds

Clouds

Rain

Clouds

Clear

Clear

Clear

Clouds

Clouds

Clear

Rain

Rain

Clouds

Clouds

Clouds

Clouds

Clouds

Clouds

Clouds

Clouds

Clouds

Clouds

Clouds

Clouds

Clouds

Clouds

Clouds

Clouds

Clouds

Clouds

Clouds

Clouds

Clouds

Clouds

Clouds

Clouds

Clouds

Clear

Clear

Clear

Clear

Clear

Clear

Clear

Clear

Clouds
Temperature 63°F64°F64°F64°F64°F64°F64°F64°F64°F64°F64°F64°F64°F66°F67°F66°F67°F69°F70°F67°F63°F61°F58°F56°F55°F53°F51°F50°F49°F48°F46°F44°F43°F42°F41°F40°F41°F42°F44°F46°F48°F51°F52°F53°F53°F53°F51°F50°F
Feels Like 62°F63°F64°F65°F65°F65°F64°F64°F64°F63°F63°F62°F63°F63°F64°F64°F65°F65°F64°F58°F51°F49°F46°F44°F42°F40°F39°F38°F36°F35°F33°F30°F28°F27°F26°F26°F26°F28°F31°F34°F37°F40°F42°F43°F43°F43°F40°F39°F
Cloudiness 90%84%79%72%64%13%9%7%5%11%14%7%40%53%59%65%70%100%100%96%97%97%92%86%86%90%79%75%77%59%79%80%63%54%45%15%22%15%11%9%8%0%0%0%0%0%1%57%
Visibility 6 mi6 mi6 mi6 mi6 mi6 mi6 mi6 mi6 mi6 mi6 mi6 mi6 mi6 mi6 mi6 mi6 mi6 mi6 mi6 mi6 mi6 mi6 mi6 mi6 mi6 mi6 mi6 mi6 mi6 mi6 mi6 mi6 mi6 mi6 mi6 mi6 mi6 mi6 mi6 mi6 mi6 mi6 mi6 mi6 mi6 mi6 mi6 mi
Precipitation 100%80%80%80%100%65%47%47%35%39%42%69%77%81%81%81%73%11%4%0%0%0%0%0%0%0%0%0%0%0%0%0%0%0%0%0%0%0%0%0%0%0%0%0%0%0%0%0%
Humidity 88%92%96%97%97%97%96%95%94%93%93%93%93%92%90%91%87%77%69%70%71%67%67%66%67%68%69%71%74%77%77%77%77%76%76%76%75%70%65%60%55%52%50%50%51%54%57%60%
Dew Point 59°F61°F63°F64°F63°F63°F63°F63°F63°F63°F62°F62°F62°F63°F64°F64°F63°F61°F59°F57°F53°F50°F47°F45°F44°F43°F42°F41°F41°F41°F40°F37°F36°F35°F34°F34°F33°F33°F33°F33°F33°F34°F34°F35°F36°F37°F37°F36°F
Pressure 29.91"29.91"29.91"29.91"29.91"29.91"29.88"29.88"29.88"29.91"29.91"29.94"29.94"29.97"29.97"30"30"30"30"30.03"30.06"30.12"30.18"30.21"30.24"30.27"30.27"30.3"30.33"30.33"30.36"30.36"30.39"30.42"30.42"30.45"30.47"30.47"30.47"30.47"30.47"30.45"30.42"30.42"30.42"30.42"30.45"30.45"
Wind Speed 6.8 mph7.8 mph7.3 mph7.1 mph6.2 mph6.4 mph8 mph8.6 mph9 mph9.4 mph10.1 mph10.8 mph10.5 mph12.1 mph12.2 mph11.9 mph12 mph13.2 mph14.6 mph21.1 mph22.6 mph19.6 mph20.1 mph20.6 mph20 mph20.6 mph19.4 mph18.4 mph18.5 mph18.9 mph20 mph20.9 mph20.4 mph20.4 mph20.1 mph19.9 mph19.6 mph18.4 mph16.7 mph15.1 mph13.3 mph12.2 mph11.7 mph11.8 mph12.7 mph12.6 mph13.9 mph14.8 mph
Wind
Direction
177°
S
203°
SSW
220°
SW
224°
SW
231°
SW
211°
SSW
206°
SSW
213°
SSW
222°
SW
223°
SW
231°
SW
235°
SW
243°
WSW
250°
WSW
250°
WSW
257°
WSW
268°
W
282°
WNW
296°
WNW
310°
NW
324°
NW
330°
NNW
333°
NNW
341°
NNW
346°
NNW
352°
N
356°
N
357°
N
355°
N
356°
N
357°
N
358°
N
359°
N

N

N

N
13°
NNE
16°
NNE
16°
NNE
17°
NNE
14°
NNE
10°
N

N
11°
N
12°
NNE
14°
NNE
18°
NNE
20°
NNE

Daily Forecast

Date High Low Precip. Humidity
Today
Jan 26

Rain
67 °F
63 °F
100%
91%
Wednesday
Jan 27

Rain
70 °F
50 °F
100%
87%
Thursday
Jan 28

Clear
53 °F
41 °F
0%
55%
Friday
Jan 29

Clear
52 °F
40 °F
0%
49%
Saturday
Jan 30

Rain
63 °F
53 °F
100%
75%
Sunday
Jan 31

Rain
67 °F
57 °F
92%
58%
Monday
Feb 1

Clear
59 °F
50 °F
0%
50%
Tuesday
Feb 2

Clear
60 °F
49 °F
0%
45%
Wednesday
Feb 3

Clear
55 °F
44 °F
0%
45%
Thursday
Feb 4

Clouds
64 °F
57 °F
9%
73%
Friday
Feb 5

Rain
67 °F
51 °F
100%
77%
Saturday
Feb 6

Rain
50 °F
44 °F
100%
94%
Sunday
Feb 7

Clear
53 °F
38 °F
71%
55%
Monday
Feb 8

Rain
57 °F
43 °F
31%
54%
Tuesday
Feb 9

Rain
64 °F
52 °F
100%
96%
Wednesday
Feb 10

Clouds
56 °F
47 °F
0%
68%


Temperature 8-14 Day Outlook



Precipitation 8-14 Day Outlook




Quick Links
Mobile - Dauphin Island News
Mobile - Dauphin Island Photos
Mobile - Dauphin Island Videos




About Us
Contact Us
Site Map
Search Site
Advertise With Us
   
Mobile.USGulf.info
THE MOBILE - DAUPHIN ISLAND WEBSITE

Copyright 2021, Coastal Town
Privacy    |    Legal